Lid_Strength_Index
14 13 13 14 14 14 15 14 17 15 15 12 11 12 14 13 13 14 14 14 14 14 13 12 11 10 9 8 7 6 5 3 3 3 3 4 5 6 7 7 8 9 10 10
16 14 14 16 16 14 14 14 14 14 15 11 12 13 14 14 14 14 14 14 14 14 14 14 13 12 10 9 9 7 7 7 7 7 7 7 8 8 9 10 11 12 12 12
18 16 15 19 17 16 16 17 15 16 14 12 15 15 15 14 14 14 14 14 14 14 14 14 14 13 12 10 10 9 9 9 9 10 11 11 11 12 12 12 12 12 13 13
19 17 22 16 14 14 16 16 16 15 15 13 14 14 14 14 14 15 15 15 15 15 15 14 15 15 14 11 11 11 11 11 12 12 12 13 13 13 13 13 13 14 14 14
20 21 16 16 15 16 17 18 16 15 15 14 12 12 14 14 14 15 15 15 15 15 15 15 16 16 15 14 13 13 13 12 13 14 14 14 14 14 15 15 15 15 15 15
22 22 23 15 14 14 14 19 16 15 15 15 13 16 16 14 15 15 15 16 16 16 15 16 17 17 16 16 16 16 16 15 14 14 14 14 14 15 16 16 16 17 16 16
17 23 18 14 13 14 18 18 15 14 15 15 16 15 14 14 15 16 16 17 17 17 17 18 18 18 17 17 18 18 17 17 16 16 15 14 15 17 16 16 16 16 16 16
21 25 23 13 14 15 14 14 14 14 14 15 15 15 15 15 16 16 17 17 18 18 18 19 19 19 18 19 19 19 18 17 16 16 16 16 16 17 16 15 15 16 16 17
17 16 13 14 14 13 13 13 14 14 13 13 13 14 14 14 15 16 17 18 19 20 19 20 21 20 20 21 20 20 18 17 16 15 16 16 16 16 16 15 15 16 16 16
19 17 15 14 13 13 13 13 13 14 13 13 13 13 13 13 14 15 17 19 20 21 21 21 22 21 22 21 21 21 18 17 17 18 16 16 15 15 15 15 15 15 16 16
18 17 16 14 13 13 13 13 13 13 13 13 13 13 14 13 14 16 18 20 22 23 23 23 23 22 22 21 21 18 17 16 16 17 16 15 16 16 16 16 14 14 14 14
18 15 14 13 13 14 13 13 13 13 13 13 14 13 16 17 18 20 21 22 22 23 23 23 23 22 21 21 21 19 16 15 15 16 15 15 15 16 13 13 12 12 13 13
15 17 15 15 18 17 14 15 15 16 16 15 16 18 19 19 21 21 24 24 24 25 25 23 22 22 21 21 21 21 17 16 15 15 15 15 15 14 15 13 12 12 12 12
16 16 16 18 14 18 20 18 20 21 21 21 20 22 22 22 23 24 23 24 26 26 22 17 21 22 21 21 21 22 21 17 16 15 14 14 14 14 13 14 14 14 12 13
17 17 16 19 21 21 24 24 21 21 22 21 25 24 25 22 24 25 28 28 28 28 23 19 21 23 23 22 22 21 20 18 18 17 15 15 14 14 14 14 14 14 14 13
20 23 23 22 22 25 26 24 24 22 26 26 25 23 24 27 28 29 29 30 25 25 30 21 20 25 25 24 23 22 21 19 18 17 16 15 14 15 15 16 16 16 17 17
21 21 24 24 25 26 27 28 27 25 25 25 24 27 28 30 31 29 30 32 31 30 31 30 27 26 25 23 21 19 19 19 18 16 15 15 15 16 16 16 16 16 16 16
26 27 28 26 26 28 26 30 30 28 29 28 28 29 30 30 24 27 30 32 30 29 30 29 24 19 19 20 21 20 19 17 17 16 16 16 17 17 17 18 19 20 21 18
27 22 24 30 32 31 30 31 31 31 29 28 28 27 26 28 30 30 32 31 30 28 27 27 19 20 21 19 18 20 20 19 18 17 16 16 18 18 19 20 21 21 22 22
31 34 35 35 34 30 27 24 29 32 30 32 32 30 30 31 32 30 31 29 31 30 31 28 26 26 25 23 20 20 20 20 21 19 18 18 18 19 20 21 21 22 22 23
32 34 34 27 21 22 26 32 33 32 31 33 30 30 30 33 33 33 29 27 29 32 31 28 28 27 27 25 25 25 23 20 20 21 20 19 20 20 21 21 22 22 23 24
34 33 25 21 21 24 33 33 34 33 33 31 31 31 29 32 33 32 33 29 30 29 30 30 29 26 27 25 27 26 26 25 24 23 22 20 20 21 22 22 23 23 23 24
33 26 21 20 21 30 34 34 33 33 31 32 30 30 30 32 33 28 26 29 30 29 30 29 25 23 23 28 28 28 27 26 26 26 26 25 25 24 24 24 24 24 25 25
24 22 20 24 33 32 30 33 35 34 33 33 33 33 30 29 31 33 32 29 27 28 28 28 24 22 27 30 30 30 30 30 29 29 28 28 28 27 27 27 26 26 25 25
24 22 22 31 30 30 33 34 34 33 32 31 31 32 34 32 28 29 30 29 25 29 30 27 23 25 31 32 31 31 32 32 32 30 31 30 31 30 30 30 30 29 28 27
25 24 21 22 25 25 25 23 21 22 22 24 29 33 31 30 29 28 29 29 29 29 31 31 32 32 32 32 32 31 30 31 30 30 30 31 30 30 31 31 30 30 32 32
32 27 23 21 20 19 19 19 20 23 30 30 30 32 30 29 29 29 29 30 30 30 32 32 31 30 32 31 31 31 31 31 29 31 32 32 32 33 31 32 33 32 32 31